[[{"header":{"parameterUnit":"m.s-1","parameterCategory":1,"la1":30.2991,"la2":30.254,"lo1":-89.0895,"lo2":-89.0444,"dy":0.0017,"dx":0.0017,"nx":28,"ny":28,"refTime":"2024-10-06T09:00:00:Z","depth":0,"parameterNumber":2,"parameterNumberName":"U-component_of_WINDS"},"data":[0,0,0,0,0,0,0,0,0,0,0,0,0,0,0,0,0,0,0,0,0,0,0,0,0,0,0,0,0,0,0,0,0,0,0,0,0,0,0,0,0,0,0,0,0,0,0,0,0,0,0,0,0,0,0,0,0,0,-4.0847,-4.0848,0,-4.0885,-4.0886,-4.0886,-4.0758,-4.0755,-4.0751,-4.0747,-4.0789,-4.0793,-4.0798,0,0,0,0,0,0,0,0,0,0,0,0,0,-4.0666,-4.067,-4.0847,-4.0848,-4.0848,-4.0885,-4.0886,-4.0886,-4.0759,-4.0754,-4.075,-4.0745,-4.0787,-4.0793,-4.0798,0,0,0,0,0,0,0,0,0,0,0,0,0,-4.0729,-4.0671,-4.0847,-4.0789,-4.0784,-4.0885,-4.0886,-4.0886,-4.076,-4.0754,-4.0749,-4.0743,-4.0785,-4.0792,-4.0799,-4.0958,0,0,-4.0821,-4.0824,0,0,0,0,0,0,0,0,-4.0725,-4.0735,-4.0797,-4.0793,-4.0788,-4.0811,-4.0837,-4.0911,-4.0762,-4.0769,-4.0747,-4.074,-4.0801,-4.0806,-4.0826,-4.096,-4.0962,-4.0821,-4.0825,-4.0828,-4.083,0,0,0,0,0,0,0,-4.0721,-4.0733,-4.0862,-4.0798,-4.0793,-4.0762,-4.0764,-4.085,-4.0817,-4.0768,-4.0759,-4.0765,-4.0797,-4.082,-4.0826,-4.0963,-4.0821,-4.0827,-4.0832,-4.0834,-4.1229,-4.1235,0,0,0,0,0,0,-4.0724,-4.073,-4.0861,-4.0863,-4.0742,-4.077,-4.0772,-4.081,-4.0816,-4.0811,-4.077,-4.0759,-4.0811,-4.0818,-4.0827,-4.1014,-4.0828,-4.0835,-4.0839,-4.1223,-4.1231,-4.1237,0,0,0,0,0,0,-4.0721,-4.0737,-4.086,-4.0794,-4.0808,-4.0779,-4.0822,-4.0813,-4.0836,-4.0817,-4.0811,-4.0799,-4.0806,-4.0817,-4.0926,-4.1014,-4.0838,-4.0845,-4.1216,-4.1225,-4.1234,-4.139,0,0,0,0,0,0,-4.0716,-4.0736,-4.0796,-4.0797,-4.0812,-4.0958,-4.0827,-4.0818,-4.0848,-4.0834,-4.0843,-4.0839,-4.0803,-4.0917,-4.0934,-4.102,-4.085,-4.1208,-4.122,-4.1231,-4.1377,-4.1403,-4.1426,0,0,0,0,0,-4.071,-4.0839,-4.08,-4.0817,-4.0886,-4.0963,-4.0972,-4.0927,-4.0855,-4.0916,-4.0904,-4.0838,-4.1001,-4.0929,-4.0947,-4.1037,-4.1202,-4.1216,-4.123,-4.1366,-4.1398,-4.1425,0,0,0,0,0,0,-4.0851,-4.0838,-4.0795,-4.0928,-4.0948,-4.0942,-4.1016,-4.0963,-4.1004,-4.099,-4.0933,-4.0936,-4.1055,-4.1057,-4.0976,-4.1192,-4.1089,-4.1108,-4.1186,-4.1217,-4.1241,-4.1239,-4.0856,0,0,0,0,0,-4.0898,-4.0961,-4.0947,-4.1066,-4.1078,-4.1046,-4.1078,-4.1041,-4.106,-4.1068,-4.1064,-4.1085,-4.114,-4.1179,-4.1229,-4.1376,-4.1376,-4.1447,-4.1472,-4.1492,-4.1509,-4.1587,-4.1618,-4.1283,-4.1283,-4.1283,0,0,-4.0995,-4.0995,-4.1039,-4.1094,-4.1105,-4.1173,-4.1054,-4.113,-4.118,-4.108,-4.1182,-4.118,-4.12,-4.1329,-4.1385,-4.1334,-4.1601,-4.151,-4.1526,-4.1532,-4.1604,-4.1636,-4.1664,-4.1293,-4.1291,-4.129,0,0,-4.1206,-4.1213,-4.1313,-4.1326,-4.1344,-4.1321,-4.1346,-4.1348,-4.1342,-4.1444,-4.137,-4.1429,-4.1526,-4.1543,-4.1565,-4.1782,-4.1723,-4.18,-4.1929,-4.2006,-4.2032,-4.2055,-4.2133,-4.2162,-4.1816,-4.1817,-4.1817,0,-4.1325,-4.1423,-4.1371,-4.1453,-4.1479,-4.139,-4.1491,-4.1507,-4.1541,-4.1561,-4.1503,-4.1623,-4.163,-4.1761,-4.1814,-4.1834,-4.186,-4.1799,-4.2032,-4.2055,-4.2076,-4.215,-4.2179,-4.1826,-4.1825,-4.1824,-4.1823,0,-4.1568,-4.1637,-4.1716,-4.175,-4.1785,-4.1876,-4.1838,-4.188,-4.1841,-4.1825,-4.193,-4.1935,-4.1985,-4.2013,-4.1976,-4.214,-4.2107,-4.2042,-4.1938,-4.2118,-4.2186,-4.2214,-4.1839,-4.1836,-4.1833,-4.1831,0,0,-4.187,-4.1874,-4.1904,-4.1918,-4.1931,-4.1983,-4.207,-4.2118,-4.2155,-4.2182,-4.2253,-4.2338,-4.2277,-4.2301,-4.2265,-4.2332,-4.2504,-4.2258,-4.2257,-4.2304,-4.2686,-4.2735,-4.2769,-4.2465,-4.247,-4.2474,-4.2684,0,-4.2078,-4.2226,-4.2182,-4.2331,-4.2395,-4.2311,-4.2387,-4.2403,-4.2391,-4.2443,-4.2429,-4.249,-4.2405,-4.2419,-4.2482,-4.247,-4.258,-4.2454,-4.2532,-4.2536,-4.2531,-4.2804,-4.2857,-4.3055,-4.271,-4.2715,-4.2718,0,-4.2341,-4.2377,-4.2532,-4.2534,-4.2559,-4.2628,-4.2668,-4.2719,-4.2736,-4.2722,-4.2749,-4.2699,-4.2785,-4.268,-4.2798,-4.2713,-4.2742,-4.2742,-4.2748,-4.2754,-4.2638,-4.2819,-4.3117,-4.3147,-4.276,-4.2756,-4.2753,0,-4.2546,-4.2633,-4.2737,-4.2752,-4.2757,-4.2807,-4.2812,-4.2823,-4.2854,-4.2889,-4.2909,-4.2955,-4.298,-4.3016,-4.298,-4.2907,-4.3104,-4.2996,-4.3095,-4.3096,-4.3141,-4.3139,-4.3449,-4.3159,-4.3159,-4.3158,-4.3157,0,-4.2784,-4.2882,-4.283,-4.2894,-4.3002,-4.295,-4.3059,-4.3053,-4.3064,-4.3126,-4.3057,-4.3117,-4.3064,-4.312,-4.3092,-4.3194,-4.3206,-4.3197,-4.3189,-4.3204,-4.3205,-4.3223,-4.3209,-4.3166,-4.3164,-4.3163,-4.3161,0,-4.3032,-4.3,-4.3108,-4.3104,-4.3105,-4.3185,-4.3181,-4.324,-4.3222,-4.3302,-4.3317,-4.329,-4.3351,-4.3318,-4.3382,-4.3363,-4.3496,-4.3468,-4.349,-4.3483,-4.3584,-4.3576,-4.3917,-4.396,-4.3642,-4.3645,-4.3648,0,-4.3186,-4.3259,-4.3262,-4.3298,-4.3307,-4.3367,-4.3398,-4.335,-4.3385,-4.341,-4.3467,-4.3522,-4.3564,-4.3667,-4.3653,-4.3701,-4.3675,-4.3791,-4.3682,-4.3695,-4.3677,-4.3674,-4.3681,-4.3814,-4.3818,-4.3821,-4.3823,0,-4.3462,-4.3443,-4.349,-4.3533,-4.3572,-4.3604,-4.3629,-4.3663,-4.3615,-4.3659,-4.3721,-4.3753,-4.3818,-4.3874,-4.3916,-4.3921,-4.3865,-4.3857,-4.3883,-4.39,-4.3909,-4.3906,-4.3551,-4.385,-4.3847,-4.3845,-4.3844,-4.3843,-4.3668,-4.3729,-4.3741,-4.3796,-4.381,-4.3836,-4.3891,-4.388,-4.393,-4.3978,-4.3947,-4.402,-4.4035,-4.4085,-4.4097,-4.4154,-4.4107,-4.4144,-4.4154,-4.4164,-4.4178,-4.39,-4.4161,-4.416,-4.416,-4.4159,-4.4158,0,-4.3941,-4.3944,-4.3995,-4.4033,-4.4077,-4.4019,-4.4044,-4.4085,-4.415,-4.4168,-4.421,-4.4281,-4.4335,-4.4325,-4.4374,-4.4422,-4.4398,-4.4437,-4.4433,-4.4435,-4.4216,-4.419,-4.4455,-4.4455,-4.4455,-4.4455,-4.4455,-4.4455,-4.4088,-4.4189,-4.4171,-4.4279,-4.4281,-4.4351,-4.4371,-4.4394,-4.4408,-4.449,-4.4535,-4.4527,-4.4535,-4.4583,-4.4631,-4.4626,-4.4648,-4.4697,-4.4684,-4.448,-4.445,-4.4422,-4.4397,-4.4702,-4.4702,-4.4897,-4.4899,-4.49]},{"header":{"parameterUnit":"m.s-1","parameterCategory":1,"la1":30.2991,"la2":30.254,"lo1":-89.0895,"lo2":-89.0444,"dy":0.0017,"dx":0.0017,"nx":28,"ny":28,"refTime":"2024-10-06T09:00:00:Z","depth":0,"parameterNumber":3,"parameterNumberName":"V-component_of_WINDS"},"data":[0,0,0,0,0,0,0,0,0,0,0,0,0,0,0,0,0,0,0,0,0,0,0,0,0,0,0,0,0,0,0,0,0,0,0,0,0,0,0,0,0,0,0,0,0,0,0,0,0,0,0,0,0,0,0,0,0,0,-2.6411,-2.6411,0,-2.6456,-2.6457,-2.6457,-2.6425,-2.6424,-2.6422,-2.6421,-2.6466,-2.6469,-2.6471,0,0,0,0,0,0,0,0,0,0,0,0,0,-2.6294,-2.6297,-2.6411,-2.6411,-2.6412,-2.6456,-2.6457,-2.6457,-2.6426,-2.6424,-2.6422,-2.6421,-2.6465,-2.6468,-2.6471,0,0,0,0,0,0,0,0,0,0,0,0,0,-2.6343,-2.6297,-2.641,-2.6401,-2.6401,-2.6456,-2.6457,-2.6457,-2.6426,-2.6424,-2.6422,-2.642,-2.6464,-2.6468,-2.6472,-2.6538,0,0,-2.6483,-2.6485,0,0,0,0,0,0,0,0,-2.634,-2.6347,-2.6402,-2.6402,-2.6402,-2.6433,-2.6432,-2.6484,-2.6426,-2.6416,-2.6421,-2.6419,-2.6457,-2.6461,-2.6474,-2.654,-2.6542,-2.6484,-2.6486,-2.6488,-2.6489,0,0,0,0,0,0,0,-2.6337,-2.6345,-2.6428,-2.6403,-2.6403,-2.6394,-2.6399,-2.6442,-2.6448,-2.6417,-2.6415,-2.6421,-2.6456,-2.6471,-2.6475,-2.6543,-2.6484,-2.6487,-2.6489,-2.6491,-2.6664,-2.6666,0,0,0,0,0,0,-2.6334,-2.6342,-2.6427,-2.643,-2.6365,-2.6398,-2.6403,-2.6425,-2.6447,-2.6449,-2.6423,-2.6419,-2.6465,-2.6471,-2.6476,-2.6555,-2.6488,-2.6491,-2.6493,-2.6662,-2.6665,-2.6667,0,0,0,0,0,0,-2.6332,-2.6342,-2.6425,-2.6386,-2.6395,-2.6402,-2.6427,-2.6427,-2.6441,-2.6452,-2.6452,-2.6436,-2.6464,-2.6471,-2.6523,-2.6556,-2.6493,-2.6496,-2.6659,-2.6663,-2.6666,-2.6712,0,0,0,0,0,0,-2.6329,-2.6342,-2.6367,-2.6386,-2.6398,-2.6471,-2.6429,-2.6429,-2.6448,-2.6444,-2.6465,-2.6466,-2.6463,-2.6517,-2.6527,-2.656,-2.6499,-2.6656,-2.6661,-2.6665,-2.6708,-2.6717,-2.6725,0,0,0,0,0,-2.6325,-2.6378,-2.6369,-2.6379,-2.643,-2.6473,-2.648,-2.6475,-2.6451,-2.6476,-2.6483,-2.6465,-2.6551,-2.6523,-2.6533,-2.6568,-2.6654,-2.6659,-2.6664,-2.6704,-2.6715,-2.6725,0,0,0,0,0,0,-2.6363,-2.6381,-2.637,-2.6432,-2.6451,-2.6468,-2.65,-2.6487,-2.6514,-2.6509,-2.6502,-2.6507,-2.6561,-2.657,-2.6538,-2.6633,-2.6598,-2.6606,-2.6625,-2.6636,-2.6644,-2.6641,-2.6502,0,0,0,0,0,-2.6378,-2.6412,-2.6426,-2.6479,-2.6489,-2.6493,-2.6512,-2.6507,-2.6527,-2.6535,-2.6545,-2.6564,-2.6595,-2.6616,-2.6645,-2.6709,-2.6713,-2.6738,-2.6747,-2.6754,-2.676,-2.6794,-2.6805,-2.6684,-2.6684,-2.6684,0,0,-2.641,-2.6425,-2.6447,-2.6487,-2.6502,-2.6537,-2.65,-2.6539,-2.6565,-2.654,-2.659,-2.6598,-2.6619,-2.6677,-2.6703,-2.6686,-2.6794,-2.676,-2.6766,-2.6768,-2.68,-2.6812,-2.6822,-2.6688,-2.6687,-2.6687,0,0,-2.6487,-2.6502,-2.6547,-2.6562,-2.6585,-2.6587,-2.6598,-2.6617,-2.6621,-2.6671,-2.6653,-2.6683,-2.6738,-2.6753,-2.6768,-2.6851,-2.6835,-2.6861,-2.6905,-2.6938,-2.6947,-2.6956,-2.6985,-2.6995,-2.6867,-2.6867,-2.6867,0,-2.6524,-2.6577,-2.6572,-2.6612,-2.663,-2.661,-2.6655,-2.667,-2.6701,-2.6714,-2.6695,-2.6762,-2.6775,-2.6836,-2.6856,-2.6869,-2.6881,-2.6858,-2.6946,-2.6955,-2.6963,-2.699,-2.7001,-2.687,-2.687,-2.6869,-2.6869,0,-2.6621,-2.6658,-2.6692,-2.6723,-2.6745,-2.6787,-2.6788,-2.6811,-2.6803,-2.6807,-2.6858,-2.6873,-2.6904,-2.6918,-2.6912,-2.6979,-2.6967,-2.6947,-2.6913,-2.6977,-2.7003,-2.7013,-2.6874,-2.6873,-2.6872,-2.6872,0,0,-2.6723,-2.6751,-2.6763,-2.6777,-2.68,-2.6828,-2.687,-2.6901,-2.692,-2.6942,-2.6977,-2.7023,-2.7004,-2.7022,-2.7016,-2.7046,-2.7109,-2.7022,-2.7022,-2.7037,-2.7183,-2.7198,-2.721,-2.7099,-2.7101,-2.7103,-2.7181,0,-2.6801,-2.6874,-2.687,-2.6938,-2.6972,-2.6953,-2.6989,-2.7007,-2.7012,-2.704,-2.7045,-2.7078,-2.7052,-2.7062,-2.709,-2.7096,-2.7139,-2.709,-2.7131,-2.7132,-2.7126,-2.7224,-2.724,-2.7313,-2.7192,-2.7193,-2.7194,0,-2.6901,-2.6927,-2.6999,-2.7017,-2.7031,-2.7064,-2.7092,-2.712,-2.714,-2.7141,-2.716,-2.715,-2.7191,-2.7156,-2.7212,-2.7179,-2.7195,-2.7201,-2.7204,-2.7207,-2.7167,-2.723,-2.7336,-2.7347,-2.721,-2.7209,-2.7208,0,-2.6968,-2.7021,-2.707,-2.7083,-2.7105,-2.7128,-2.7139,-2.7156,-2.7175,-2.72,-2.7212,-2.7241,-2.7257,-2.7279,-2.7277,-2.7252,-2.7334,-2.7299,-2.7336,-2.7336,-2.7354,-2.7353,-2.7465,-2.7365,-2.7365,-2.7365,-2.7365,0,-2.7055,-2.71,-2.7101,-2.7131,-2.718,-2.7175,-2.7224,-2.7231,-2.7247,-2.7278,-2.7264,-2.7293,-2.7288,-2.7318,-2.7316,-2.7363,-2.737,-2.7372,-2.7371,-2.7373,-2.7373,-2.7384,-2.7378,-2.7368,-2.7367,-2.7367,-2.7366,0,-2.7138,-2.7141,-2.7193,-2.721,-2.7216,-2.7251,-2.7265,-2.7294,-2.7297,-2.7337,-2.7346,-2.7351,-2.7385,-2.7385,-2.7423,-2.7422,-2.7479,-2.7472,-2.7473,-2.7471,-2.7509,-2.7505,-2.7631,-2.7647,-2.7537,-2.7538,-2.7539,0,-2.7193,-2.7227,-2.7248,-2.7268,-2.728,-2.7313,-2.7332,-2.7328,-2.7349,-2.7374,-2.7399,-2.7432,-2.7457,-2.7512,-2.7519,-2.7548,-2.7542,-2.7584,-2.7546,-2.7547,-2.7542,-2.754,-2.7543,-2.7591,-2.7592,-2.7593,-2.7594,0,-2.7291,-2.7291,-2.732,-2.7349,-2.7373,-2.7396,-2.7417,-2.7434,-2.7432,-2.7456,-2.7491,-2.7511,-2.755,-2.7582,-2.7611,-2.762,-2.7607,-2.7606,-2.7616,-2.7619,-2.7617,-2.7618,-2.7492,-2.7603,-2.7602,-2.7601,-2.7601,-2.7601,-2.7362,-2.7391,-2.741,-2.7443,-2.7458,-2.7478,-2.7506,-2.7513,-2.7542,-2.7574,-2.7569,-2.7608,-2.7626,-2.7663,-2.7675,-2.7704,-2.769,-2.7704,-2.7708,-2.7712,-2.7716,-2.7613,-2.771,-2.7709,-2.7709,-2.7709,-2.7709,0,-2.7459,-2.747,-2.75,-2.753,-2.7556,-2.7542,-2.7564,-2.7586,-2.762,-2.7639,-2.7664,-2.7704,-2.7735,-2.7744,-2.7774,-2.7796,-2.779,-2.7804,-2.7802,-2.7804,-2.7727,-2.7716,-2.7808,-2.7808,-2.7808,-2.7808,-2.7808,-2.7807,-2.7512,-2.756,-2.7562,-2.7618,-2.7629,-2.7667,-2.7681,-2.7699,-2.7713,-2.7758,-2.7784,-2.779,-2.7805,-2.7835,-2.7863,-2.7865,-2.7876,-2.7892,-2.7892,-2.782,-2.781,-2.78,-2.7789,-2.7895,-2.7895,-2.7966,-2.7967,-2.7967]}]]